HISTORICAL SENSOR DATA

Sensor Data Report

DB LIVE
CURRENT TIME--:--:--
DEVICE NETWORK Gateway Status
13 ESP · realtime ~1s · history 60s
Weather WS-MOD-01
ONLINE
Actuator ACT-MOD-01
OFFLINE
Mainboard L3 MB-L3-01
ONLINE
Mainboard L5 MB-L5-01
ONLINE
Remote AC AC-REMOTE-01
ONLINE
PZEM L3-01 PWR-L3-01
OFFLINE
PZEM L3-02 PWR-L3-02
OFFLINE
PZEM L3-03 PWR-L3-03
OFFLINE
PZEM L3-04 PWR-L3-04
OFFLINE
PZEM L5-01 PWR-L5-01
ONLINE
PZEM L5-02 PWR-L5-02
ONLINE
PZEM L5-03 PWR-L5-03
OFFLINE
PZEM L5-04 PWR-L5-04
OFFLINE
REPORT FILTER

Periode & Sensor

DATABASE HISTORY
RESET
QUICK RANGE Hari ini 7 hari 30 hari
PERIODE09 Aug 2026sampai 07 Sep 2026
TOTAL DATA95,329sensor readings
MINIMUM-0.50sesuai filter
AVERAGE72.61sesuai filter
MAXIMUM32,564.20sesuai filter
REPORT RESULT

Data Sensor

09/08/2026 — 07/09/2026 EXPORT CSV
NOTANGGALWAKTUDEVICECHANNELSENSORVALUEUNIT
801 07/09/2026 06:36:00 MB-L5-01Mainboard Lantai 5 L5-RAD-02 Radiation 2 2.00 W/m²
802 07/09/2026 06:36:00 MB-L3-01Mainboard Lantai 3 L3-SHT-03-T SHT20 3 Temperature 28.30 °C
803 07/09/2026 06:36:00 MB-L5-01Mainboard Lantai 5 L5-SHT-03-T SHT20 3 Temperature 28.20 °C
804 07/09/2026 06:36:00 MB-L5-01Mainboard Lantai 5 L5-BGT-03 Black Globe Temperature 3 26.00 °C
805 07/09/2026 06:36:00 MB-L3-01Mainboard Lantai 3 L3-RAD-01 Radiation 1 2.00 W/m²
806 07/09/2026 06:36:00 MB-L5-01Mainboard Lantai 5 L5-SHT-01-T SHT20 1 Temperature 28.00 °C
807 07/09/2026 06:36:00 PWR-L5-01Power Meter L5 PZEM 01 PZEM-L5-01-CURR PZEM L5-01 Current 0.12 A
808 07/09/2026 06:35:00 WS-MOD-01Weather Station Module WS-DIR Arah Angin 74.60 °
809 07/09/2026 06:35:00 MB-L5-01Mainboard Lantai 5 L5-LUX-03 Illuminance / LUX 3 379.80 lux
810 07/09/2026 06:35:00 MB-L5-01Mainboard Lantai 5 L5-LUX-02 Illuminance / LUX 2 1,162.80 lux
811 07/09/2026 06:35:00 MB-L3-01Mainboard Lantai 3 L3-LUX-02 Illuminance / LUX 2 345.20 lux
812 07/09/2026 06:35:00 MB-L5-01Mainboard Lantai 5 L5-AI-05 Analog Input 5 3.05 V
813 07/09/2026 06:35:00 MB-L5-01Mainboard Lantai 5 L5-LUX-01 Illuminance / LUX 1 262.80 lux
814 07/09/2026 06:35:00 MB-L5-01Mainboard Lantai 5 L5-HFT-02 Heat Flow Temperature 2 22.70 °C
815 07/09/2026 06:35:00 MB-L5-01Mainboard Lantai 5 L5-BGT-02 Black Globe Temperature 2 26.10 °C
816 07/09/2026 06:35:00 WS-MOD-01Weather Station Module WS-PRES Tekanan Udara 911.00 hPa
817 07/09/2026 06:35:00 MB-L3-01Mainboard Lantai 3 L3-LUX-03 Illuminance / LUX 3 393.80 lux
818 07/09/2026 06:35:00 PWR-L5-01Power Meter L5 PZEM 01 PZEM-L5-01-POWER PZEM L5-01 Active Power 10.00 W
819 07/09/2026 06:35:00 MB-L5-01Mainboard Lantai 5 L5-AI-02 Analog Input 2 3.05 V
820 07/09/2026 06:35:00 WS-MOD-01Weather Station Module WS-RH Kelembapan Udara 77.60 %RH
821 07/09/2026 06:35:00 MB-L5-01Mainboard Lantai 5 L5-SHT-02-T SHT20 2 Temperature 28.30 °C
822 07/09/2026 06:35:00 PWR-L5-02Power Meter L5 PZEM 02 PZEM-L5-02-PF PZEM L5-02 Power Factor 0.00
823 07/09/2026 06:35:00 WS-MOD-01Weather Station Module WS-TEMP Suhu Udara 19.10 °C
824 07/09/2026 06:35:00 WS-MOD-01Weather Station Module WS-WIND Kecepatan Angin 5.84 m/s
825 07/09/2026 06:35:00 PWR-L5-02Power Meter L5 PZEM 02 PZEM-L5-02-FREQ PZEM L5-02 Frequency 50.00 Hz
826 07/09/2026 06:35:00 PWR-L5-02Power Meter L5 PZEM 02 PZEM-L5-02-ENERGY PZEM L5-02 Energy 0.04 kWh
827 07/09/2026 06:35:00 PWR-L5-02Power Meter L5 PZEM 02 PZEM-L5-02-POWER PZEM L5-02 Active Power 0.00 W
828 07/09/2026 06:35:00 MB-L3-01Mainboard Lantai 3 L3-AI-05 Analog Input 5 3.12 V
829 07/09/2026 06:35:00 MB-L3-01Mainboard Lantai 3 L3-AI-02 Analog Input 2 3.12 V
830 07/09/2026 06:35:00 PWR-L5-02Power Meter L5 PZEM 02 PZEM-L5-02-CURR PZEM L5-02 Current 0.00 A
831 07/09/2026 06:35:00 MB-L5-01Mainboard Lantai 5 L5-ST-01 Surface Temperature 1 23.40 °C
832 07/09/2026 06:35:00 PWR-L5-01Power Meter L5 PZEM 01 PZEM-L5-01-VOLT PZEM L5-01 Voltage 225.60 V
833 07/09/2026 06:35:00 PWR-L5-02Power Meter L5 PZEM 02 PZEM-L5-02-VOLT PZEM L5-02 Voltage 225.60 V
834 07/09/2026 06:35:00 PWR-L5-01Power Meter L5 PZEM 01 PZEM-L5-01-PF PZEM L5-01 Power Factor 0.39
835 07/09/2026 06:35:00 MB-L5-01Mainboard Lantai 5 L5-AI-04 Analog Input 4 3.05 V
836 07/09/2026 06:35:00 MB-L3-01Mainboard Lantai 3 L3-SHT-02-T SHT20 2 Temperature 28.10 °C
837 07/09/2026 06:35:00 MB-L3-01Mainboard Lantai 3 L3-SHT-03-RH SHT20 3 Humidity 46.40 %RH
838 07/09/2026 06:35:00 MB-L5-01Mainboard Lantai 5 L5-LUX-04 Illuminance / LUX 4 231.70 lux
839 07/09/2026 06:35:00 MB-L5-01Mainboard Lantai 5 L5-HFT-01 Heat Flow Temperature 1 23.20 °C
840 07/09/2026 06:35:00 MB-L5-01Mainboard Lantai 5 L5-RAD-01 Radiation 1 2.00 W/m²
841 07/09/2026 06:35:00 MB-L3-01Mainboard Lantai 3 L3-RAD-02 Radiation 2 1.00 W/m²
842 07/09/2026 06:35:00 MB-L5-01Mainboard Lantai 5 L5-BGT-01 Black Globe Temperature 1 26.20 °C
843 07/09/2026 06:35:00 MB-L3-01Mainboard Lantai 3 L3-LUX-01 Illuminance / LUX 1 221.10 lux
844 07/09/2026 06:35:00 MB-L5-01Mainboard Lantai 5 L5-AI-01 Analog Input 1 3.05 V
845 07/09/2026 06:35:00 MB-L5-01Mainboard Lantai 5 L5-SHT-02-RH SHT20 2 Humidity 46.30 %RH
846 07/09/2026 06:35:00 PWR-L5-01Power Meter L5 PZEM 01 PZEM-L5-01-ENERGY PZEM L5-01 Energy 0.13 kWh
847 07/09/2026 06:35:00 MB-L3-01Mainboard Lantai 3 L3-AI-04 Analog Input 4 3.12 V
848 07/09/2026 06:35:00 MB-L3-01Mainboard Lantai 3 L3-AI-01 Analog Input 1 3.12 V
849 07/09/2026 06:35:00 MB-L5-01Mainboard Lantai 5 L5-AI-06 Analog Input 6 3.05 V
850 07/09/2026 06:35:00 MB-L5-01Mainboard Lantai 5 L5-RAD-02 Radiation 2 2.00 W/m²
851 07/09/2026 06:35:00 MB-L3-01Mainboard Lantai 3 L3-SHT-03-T SHT20 3 Temperature 28.40 °C
852 07/09/2026 06:35:00 MB-L5-01Mainboard Lantai 5 L5-SHT-03-T SHT20 3 Temperature 28.20 °C
853 07/09/2026 06:35:00 MB-L5-01Mainboard Lantai 5 L5-BGT-03 Black Globe Temperature 3 25.90 °C
854 07/09/2026 06:35:00 MB-L3-01Mainboard Lantai 3 L3-RAD-01 Radiation 1 2.00 W/m²
855 07/09/2026 06:35:00 MB-L5-01Mainboard Lantai 5 L5-SHT-01-T SHT20 1 Temperature 28.10 °C
856 07/09/2026 06:35:00 PWR-L5-01Power Meter L5 PZEM 01 PZEM-L5-01-CURR PZEM L5-01 Current 0.11 A
857 07/09/2026 06:35:00 MB-L5-01Mainboard Lantai 5 L5-AI-03 Analog Input 3 3.05 V
858 07/09/2026 06:35:00 MB-L5-01Mainboard Lantai 5 L5-LUX-06 Illuminance / LUX 6 378.90 lux
859 07/09/2026 06:35:00 MB-L5-01Mainboard Lantai 5 L5-SHT-01-RH SHT20 1 Humidity 46.90 %RH
860 07/09/2026 06:35:00 MB-L5-01Mainboard Lantai 5 L5-ST-02 Surface Temperature 2 23.00 °C
861 07/09/2026 06:35:00 AC-REMOTE-01Remote AC AC-POWER AC Power State 1.00 state
862 07/09/2026 06:35:00 AC-REMOTE-01Remote AC AC-SETPOINT AC Set Temperature 23.00 °C
863 07/09/2026 06:35:00 MB-L3-01Mainboard Lantai 3 L3-SHT-01-RH SHT20 1 Humidity 46.60 %RH
864 07/09/2026 06:35:00 MB-L3-01Mainboard Lantai 3 L3-LUX-04 Illuminance / LUX 4 225.40 lux
865 07/09/2026 06:35:00 AC-REMOTE-01Remote AC AC-MODE AC Operating Mode 1.00 code
866 07/09/2026 06:35:00 MB-L3-01Mainboard Lantai 3 L3-SHT-01-T SHT20 1 Temperature 28.00 °C
867 07/09/2026 06:35:00 MB-L3-01Mainboard Lantai 3 L3-LUX-06 Illuminance / LUX 6 629.00 lux
868 07/09/2026 06:35:00 MB-L3-01Mainboard Lantai 3 L3-SHT-02-RH SHT20 2 Humidity 46.30 %RH
869 07/09/2026 06:35:00 MB-L3-01Mainboard Lantai 3 L3-AI-06 Analog Input 6 3.12 V
870 07/09/2026 06:35:00 AC-REMOTE-01Remote AC AC-FAN AC Fan Speed 0.00 code
871 07/09/2026 06:35:00 MB-L3-01Mainboard Lantai 3 L3-LUX-05 Illuminance / LUX 5 1,501.00 lux
872 07/09/2026 06:35:00 MB-L3-01Mainboard Lantai 3 L3-AI-03 Analog Input 3 3.12 V
873 07/09/2026 06:35:00 MB-L5-01Mainboard Lantai 5 L5-SHT-03-RH SHT20 3 Humidity 46.70 %RH
874 07/09/2026 06:35:00 PWR-L5-01Power Meter L5 PZEM 01 PZEM-L5-01-FREQ PZEM L5-01 Frequency 50.00 Hz
875 07/09/2026 06:34:00 WS-MOD-01Weather Station Module WS-WIND Kecepatan Angin 8.31 m/s
876 07/09/2026 06:34:00 PWR-L5-02Power Meter L5 PZEM 02 PZEM-L5-02-FREQ PZEM L5-02 Frequency 50.00 Hz
877 07/09/2026 06:34:00 PWR-L5-02Power Meter L5 PZEM 02 PZEM-L5-02-ENERGY PZEM L5-02 Energy 0.04 kWh
878 07/09/2026 06:34:00 PWR-L5-02Power Meter L5 PZEM 02 PZEM-L5-02-POWER PZEM L5-02 Active Power 0.00 W
879 07/09/2026 06:34:00 MB-L3-01Mainboard Lantai 3 L3-AI-05 Analog Input 5 3.12 V
880 07/09/2026 06:34:00 MB-L3-01Mainboard Lantai 3 L3-AI-02 Analog Input 2 3.12 V
881 07/09/2026 06:34:00 PWR-L5-02Power Meter L5 PZEM 02 PZEM-L5-02-CURR PZEM L5-02 Current 0.00 A
882 07/09/2026 06:34:00 MB-L5-01Mainboard Lantai 5 L5-ST-01 Surface Temperature 1 23.40 °C
883 07/09/2026 06:34:00 PWR-L5-01Power Meter L5 PZEM 01 PZEM-L5-01-VOLT PZEM L5-01 Voltage 225.70 V
884 07/09/2026 06:34:00 PWR-L5-02Power Meter L5 PZEM 02 PZEM-L5-02-VOLT PZEM L5-02 Voltage 225.60 V
885 07/09/2026 06:34:00 PWR-L5-01Power Meter L5 PZEM 01 PZEM-L5-01-PF PZEM L5-01 Power Factor 0.40
886 07/09/2026 06:34:00 MB-L5-01Mainboard Lantai 5 L5-AI-04 Analog Input 4 3.05 V
887 07/09/2026 06:34:00 MB-L3-01Mainboard Lantai 3 L3-SHT-02-T SHT20 2 Temperature 28.10 °C
888 07/09/2026 06:34:00 MB-L3-01Mainboard Lantai 3 L3-SHT-03-RH SHT20 3 Humidity 46.30 %RH
889 07/09/2026 06:34:00 MB-L5-01Mainboard Lantai 5 L5-LUX-04 Illuminance / LUX 4 224.80 lux
890 07/09/2026 06:34:00 MB-L5-01Mainboard Lantai 5 L5-HFT-01 Heat Flow Temperature 1 23.30 °C
891 07/09/2026 06:34:00 MB-L5-01Mainboard Lantai 5 L5-RAD-01 Radiation 1 2.00 W/m²
892 07/09/2026 06:34:00 MB-L3-01Mainboard Lantai 3 L3-RAD-02 Radiation 2 1.00 W/m²
893 07/09/2026 06:34:00 MB-L5-01Mainboard Lantai 5 L5-BGT-01 Black Globe Temperature 1 26.30 °C
894 07/09/2026 06:34:00 MB-L3-01Mainboard Lantai 3 L3-LUX-01 Illuminance / LUX 1 215.20 lux
895 07/09/2026 06:34:00 MB-L5-01Mainboard Lantai 5 L5-AI-01 Analog Input 1 3.05 V
896 07/09/2026 06:34:00 MB-L5-01Mainboard Lantai 5 L5-SHT-02-RH SHT20 2 Humidity 46.30 %RH
897 07/09/2026 06:34:00 PWR-L5-01Power Meter L5 PZEM 01 PZEM-L5-01-ENERGY PZEM L5-01 Energy 0.13 kWh
898 07/09/2026 06:34:00 MB-L3-01Mainboard Lantai 3 L3-AI-04 Analog Input 4 3.12 V
899 07/09/2026 06:34:00 MB-L3-01Mainboard Lantai 3 L3-AI-01 Analog Input 1 3.12 V
900 07/09/2026 06:34:00 MB-L5-01Mainboard Lantai 5 L5-AI-06 Analog Input 6 3.05 V
Menampilkan maksimal 100 data per halaman